Find Starlink 11258

NORAD ID: 62598 Int'l Des: 2025-008 Owner: SPXS Country: US Constellation: starlink operational
LEOCIRCULAR

Current View

Loading 3D Globe...

About Starlink 11258

Starlink 11258 (NORAD 62598) is a starlink constellation satellite (v2 mini d2c) launched Jan 13, 2025 by SPXS of US. It operates in LEO, CIRCULAR orbit with a mass of 960.00 kg.

About Starlink 11258

Description loading...

Upcoming Passes

Passes for default location (London). Set your location on the main map for personalized predictions.

Altitude History

Loading altitude history...

Two-Line Element Set

1 62598U 25008M 26168.25077132 .00224563 00000-0 17103-2 0 9991
2 62598 42.9987 245.9496 0001354 287.9018 72.1702 15.70789860 82941
Epoch: Jun 17, 2026 • Age: 25 hours

Current Status

Altitude 354.7 km
Velocity 7.70 km/s
Sub-Earth Point 19.19°N, 103.24°W
Launch Date Jan 13, 2025
Age 1.4 years
Type internet

Technical Details

Classification Payload
Mass 960.00 kg
Dry Mass 910.00 kg
Total Mass 960.00 kg
Length 0.30 m
Diameter 4.10 m
Span 29.00 m
Shape Box + pan
Manufacturer SPXS
Bus Type Starlink V2MD
Phase Status In Orbit
Owner/State SPXS/US

Most Searched